Powrót do katalogu

RADIO 7

AktywnyKrótkofalarstwoPO
NORAD 13001·PAYLOAD·🇷🇺 Russia

Wystrzelony Dec 17, 1981 z Plesetsk Cosmodrome

Loading…

Następne Przeloty (najbliższe 24 godziny)

TLE

ŚwieżeSource: Space-Track

Epoka: Sep 14, 2026, 13:54 UTC

1 13001U 81120E   26257.57974721  .00000022  00000-0  13556-3 0  9998
2 13001  82.9645 334.0875 0024047 181.3433 245.5049 12.08950748974240

Śledź RADIO 7 w czasie rzeczywistym z AllMySat

Download on the App Store